MYSat 1
1 44045U 18092F 19212.88452412 .00000760 00000-0 33159-4 0 9994
2 44045 051.6422 161.7096 0011177 237.8760 122.1115 15.35059809025879
AstroCast 0.2
1 44083U 19018F 19212.88680232 .00000247 00000-0 14107-4 0 9990
2 44083 097.4658 272.5255 0013077 211.7808 148.2640 15.21405315018486
AISTechSat 3
1 44103U 19018AB 19213.73571178 .00000329 00000-0 17170-4 0 9990
2 44103 97.4541 273.3812 0012337 229.2996 279.4054 15.22667444 18624
AISat 1
1 44104U 19018AC 19213.73595015 .00000397 00000-0 15625-4 0 9995
2 44104 97.5067 275.6693 0057341 270.7149 88.7521 15.30510117 18742
Prox-1
1 44339U 19036A 19213.42159914 .00000198 00000-0 -29709-5 0 9994
2 44339 24.0017 331.2561 0011402 241.7019 118.2316 14.52653136 5397
OBJECT H
1 44346U 19036H 19213.61856256 .00010858 00000-0 17278-3 0 9995
2 44346 28.5234 318.5352 0390940 140.0167 222.9894 14.96238004 5590
OBJECT J
1 44347U 19036J 19212.53467316 .00028804 00000-0 46587-3 0 9996
2 44347 028.5304 325.3415 0385948 128.7373 234.8358 14.97333920005433
OBJECT K
1 44348U 19036K 19212.67184697 .00007398 00000-0 11361-3 0 9997
2 44348 028.5189 324.4820 0390776 130.0161 233.5420 14.96692246005457
PSAT 2
1 44354U 19036R 19212.65457208 .00008169 00000-0 12443-3 0 9992
2 44354 028.5313 324.3862 0388528 129.8826 233.6597 14.97420641005437
BRICsat 2
1 44355U 19036S 19212.65305804 .00014315 00000-0 22286-3 0 9993
2 44355 028.5311 324.3761 0387138 129.9303 233.5974 14.97650018005443
Oculus-ASR
1 44356U 19036T 19213.42906259 .00032321 00000-0 48231-3 0 9996
2 44356 28.5239 318.9530 0385793 138.3497 224.7187 14.99097025 5565
CP9
1 44360U 19036X 19213.62298206 .00022173 00000-0 31291-3 0 9991
2 44360 28.5164 317.5505 0391215 140.9035 222.0508 14.99060713 5468
Move-IIb
1 44398U 19038N 19212.91180544 .00000709 00000-0 45238-4 0 9998
2 44398 097.4908 174.3434 0026303 151.4797 208.7878 15.11590711003993
SONATE
1 44400U 19038Q 19213.70527271 .00000359 00000-0 24746-4 0 9994
2 44400 97.4918 175.1198 0026271 147.2719 213.0145 15.11632411 4110
JAISAT-1
1 44419U 19038F 19213.76020457 .00000399 00000-0 26694-4 0 9992
2 44419 97.4917 175.1997 0022563 152.1945 208.0497 15.12258815 4120
LightSail-2
1 44420U 19036AC 19212.66836196 .00004364 00000-0 99547-3 0 9997
2 44420 24.0034 336.0403 0015210 239.6536 120.2473 14.52585683 3426
BO-102
1 44443U 19043A 19213.39285725 .01093482 64073-3 16231-2 0 9998
2 44443 42.7253 322.9554 0014678 337.4832 100.4320 16.03904213 1156
